Погода в Уэуэтенанго

Гватемала     15°16′57″N   91°28′10″W
темп.,
°C
ветер,
м/с
пор.,
м/с
влажн.,
%
обл.,
%
осадки,
мм/ч
давл.,
гПа
погр.,
м
15 августа, пн
пн1500:00+12вюв1195100 1.9 101920
03:00+12ссв019378 0.1 101711
06:00+11в019279 0.1 101712
09:00+19ююв117055 0.1 1016518
12:00+24юв1345100 0.8 10132070
15:00+17сз1384100 2.5 101269
18:00+15сз1191100 7.7 101427
21:00+14в019599 5.5 101711
16 августа, вт
вт1600:00+13вюв129899 6.9 1018100
03:00+13зюз0196100 1.0 101624
06:00+13зсз1192100 1.0 101626
09:00+19вюв126884 0.0 1016519
12:00+22вюв245929 1.5 10131324
15:00+18вюв248479 3.1 1012115
18:00+16вюв2291100 6.3 101458
21:00+14в1190100 1.9 101720
17 августа, ср
ср1700:00+12вюв1194100 1.9 101811
03:00+11з019451 0.0 101711
06:00+10сз119251 0.0 101811
09:00+18юв11627 0.0 1017601
12:00+23юв233940 0.0 10131942
15:00+22ссв1251100 0.2 10111164
18:00+16ссз0189100 2.3 101429
21:00+14юв119695 0.9 101751
18 августа, чт
чт1800:00+12вюв1198100 1.2 101815
03:00+12ю1197100 0.9 101622
06:00+13ссз0197100 1.6 101730
09:00+17ю118235 0.3 1016407
12:00+20вюв337694 2.4 10141009
15:00+16юв1292100 4.3 1013106
18:00+15сз2499100 13.6 1015202
21:00+13зсз1298100 8.3 101864
19 августа, пт
пт1900:00+13юв0196100 8.6 101711
03:00+12св019595 0.3 101510
06:00+12сз0195100 0.3 101712
09:00+17юв238195 0.1 1016636
12:00+22в36498 0.8 10131877
15:00+22в56439 0.0 10112059
18:00+17вюв36735 0.1 1014179
21:00+13вюв0194100 0.0 101911